Coldwater, MI

4:58 PM EDT on August 22, 2017 (GMT -0400)
Branch County Memorial

Weather History for KOEB - November, 2013

Change the Weather History Date:

Thursday, November 7, 2013

  Actual Average (KJYM) Record (KJYM)
Temperature  
Mean Temperature 39 °F -  
Max Temperature 46 °F 48 °F 74 °F (1975)
Min Temperature 32 °F 30 °F 17 °F (1991)
Degree Days  
Heating Degree Days 26    
Moisture  
Dew Point 32 °F    
Average Humidity 77    
Maximum Humidity 96    
Minimum Humidity 48    
Precipitation  
Precipitation 0.00 in - - ()
Sea Level Pressure  
Sea Level Pressure 30.12 in    
Wind  
Wind Speed 10 mph (WNW)    
Max Wind Speed 18 mph    
Max Gust Speed 25 mph    
Visibility 10 miles    
Events Rain , Snow    
Averages and records for this station are not official NWS values.
T = Trace of Precipitation, MM = Missing Value Source: NWS Daily Summary

Daily Weather History Graph

Daily Weather History Graph

Search for Another Location

Airport or City:

Trip Planner

Search our weather history database for the weather conditions in past years. The results will help you decide how hot, cold, wet, or windy it might be!

Date:

Astronomy

Nov. 07, 2013 Rise Set
Actual Time 7:20 AM EST 5:26 PM EST
Civil Twilight 6:50 AM EST 5:56 PM EST
Nautical Twilight 6:17 AM EST 6:29 PM EST
Astronomical Twilight 5:44 AM EST 7:02 PM EST
Moon 11:29 AM EST (11/7) 9:37 PM EST (11/7)
Length of Visible Light 11h 05m
Length of Day
10h 06m
Waxing Crescent, 22% of the Moon is Illuminated
Nov 7
Waxing Crescent
Nov 10
First Quarter
Nov 17
Full
Nov 25
Last Quarter
Dec 2
New

Hourly Weather History & Observations

Time (EST) Temp. Windchill Dew Point Humidity Pressure Visibility Wind Dir Wind Speed Gust Speed Precip Events Conditions
12:14 AM 41.9 °F 36.9 °F 38.3 °F 87% 30.04 in 10.0 mi WNW 8.1 mph - N/A   Overcast
12:35 AM 41.7 °F 36.1 °F 38.1 °F 87% 30.03 in 10.0 mi WNW 9.2 mph - N/A   Overcast
12:55 AM 41.2 °F 37.3 °F 38.3 °F 89% 30.04 in 10.0 mi WNW 5.8 mph - N/A   Overcast
1:14 AM 41.2 °F 34.5 °F 38.3 °F 89% 30.05 in 10.0 mi WNW 11.5 mph - N/A   Overcast
1:35 AM 41.2 °F 35.5 °F 37.2 °F 86% 30.05 in 10.0 mi NW 9.2 mph - N/A   Overcast
1:55 AM 41.0 °F 35.8 °F 36.7 °F 85% 30.05 in 10.0 mi NW 8.1 mph - N/A   Overcast
2:15 AM 40.8 °F 36.2 °F 36.7 °F 85% 30.06 in 10.0 mi WNW 6.9 mph - N/A   Overcast
2:35 AM 40.6 °F 37.5 °F 36.7 °F 86% 30.06 in 10.0 mi West 4.6 mph - N/A   Overcast
2:54 AM 40.8 °F 36.2 °F 35.6 °F 82% 30.06 in 10.0 mi WNW 6.9 mph - N/A   Overcast
3:15 AM 40.1 °F 33.6 °F 32.2 °F 73% 30.07 in 10.0 mi WNW 10.4 mph - N/A   Overcast
3:35 AM 38.8 °F 32.6 °F 32.0 °F 76% 30.07 in 10.0 mi NW 9.2 mph 16.1 mph N/A   Mostly Cloudy
3:54 AM 38.3 °F 31.4 °F 32.0 °F 78% 30.07 in 10.0 mi WNW 10.4 mph - N/A   Mostly Cloudy
4:15 AM 38.3 °F 30.1 °F 32.0 °F 78% 30.08 in 10.0 mi WNW 13.8 mph 17.3 mph N/A   Overcast
4:35 AM 37.9 °F 28.9 °F 32.0 °F 79% 30.09 in 10.0 mi NW 16.1 mph 20.7 mph N/A   Overcast
4:54 AM 36.9 °F 28.7 °F 28.6 °F 72% 30.10 in 10.0 mi NW 12.7 mph 20.7 mph N/A   Mostly Cloudy
5:15 AM 36.3 °F 30.1 °F 28.4 °F 73% 30.11 in 10.0 mi NW 8.1 mph - N/A   Mostly Cloudy
5:35 AM 35.6 °F 29.9 °F 28.8 °F 76% 30.11 in 10.0 mi WNW 6.9 mph - N/A   Mostly Cloudy
5:54 AM 34.3 °F 30.2 °F 28.9 °F 81% 30.12 in 10.0 mi WNW 4.6 mph - N/A   Scattered Clouds
6:15 AM 32.9 °F 29.8 °F 28.9 °F 85% 30.12 in 10.0 mi West 3.5 mph - N/A   Scattered Clouds
6:35 AM 32.0 °F 28.7 °F 28.9 °F 88% 30.13 in 10.0 mi West 3.5 mph - N/A   Clear
6:54 AM 32.0 °F 28.7 °F 30.0 °F 92% 30.13 in 10.0 mi WSW 3.5 mph - N/A   Mostly Cloudy
7:15 AM 32.5 °F 29.3 °F 30.6 °F 92% 30.13 in 10.0 mi West 3.5 mph - N/A   Overcast
7:35 AM 32.9 °F 28.5 °F 30.2 °F 90% 30.14 in 10.0 mi WSW 4.6 mph - N/A   Mostly Cloudy
7:54 AM 33.6 °F 29.4 °F 31.1 °F 90% 30.15 in 10.0 mi WSW 4.6 mph - N/A   Overcast
8:15 AM 34.5 °F 28.6 °F 31.1 °F 87% 30.16 in 10.0 mi WSW 6.9 mph - N/A   Mostly Cloudy
8:35 AM 35.4 °F 29.7 °F 31.6 °F 86% 30.16 in 10.0 mi West 6.9 mph - N/A   Scattered Clouds
8:55 AM 36.9 °F 32.2 °F 31.6 °F 81% 30.16 in 10.0 mi West 5.8 mph - N/A   Clear
9:15 AM 38.5 °F 32.1 °F 31.5 °F 76% 30.16 in 10.0 mi WNW 9.2 mph - N/A   Clear
9:34 AM 39.4 °F 33.8 °F 31.3 °F 73% 30.16 in 10.0 mi WNW 8.1 mph - N/A   Clear
9:55 AM 40.1 °F 32.4 °F 31.3 °F 71% 30.16 in 10.0 mi WNW 13.8 mph 18.4 mph N/A   Scattered Clouds
10:15 AM 40.6 °F 33.0 °F 31.3 °F 69% 30.16 in 10.0 mi WNW 13.8 mph 17.3 mph N/A   Mostly Cloudy
10:34 AM 41.7 °F 34.1 °F 31.5 °F 67% 30.17 in 10.0 mi WNW 15.0 mph 19.6 mph N/A   Overcast
10:55 AM 41.0 °F 35.2 °F 30.9 °F 67% 30.17 in 10.0 mi WNW 9.2 mph 21.9 mph N/A   Mostly Cloudy
11:15 AM 41.2 °F 34.5 °F 30.9 °F 67% 30.17 in 10.0 mi WNW 11.5 mph - N/A   Mostly Cloudy
11:34 AM 41.5 °F 33.8 °F 30.6 °F 65% 30.17 in 10.0 mi WNW 15.0 mph - N/A   Overcast
11:55 AM 43.3 °F 35.5 °F 30.2 °F 60% 30.17 in 10.0 mi WNW 17.3 mph 23.0 mph N/A   Mostly Cloudy
12:15 PM 43.2 °F 35.9 °F 30.0 °F 60% 30.16 in 10.0 mi West 15.0 mph 24.2 mph N/A   Scattered Clouds
12:34 PM 44.4 °F 36.9 °F 31.3 °F 60% 30.15 in 10.0 mi West 17.3 mph 21.9 mph N/A   Mostly Cloudy
12:55 PM 44.6 °F 38.1 °F 30.7 °F 58% 30.14 in 10.0 mi WNW 13.8 mph 19.6 mph N/A   Mostly Cloudy
1:14 PM 44.4 °F 38.2 °F 30.9 °F 59% 30.13 in 10.0 mi WNW 12.7 mph 18.4 mph N/A   Mostly Cloudy
1:35 PM 46.0 °F 39.0 °F 29.5 °F 52% 30.13 in 10.0 mi West 17.3 mph 23.0 mph N/A   Mostly Cloudy
1:55 PM 43.5 °F 36.7 °F 28.6 °F 56% 30.12 in 10.0 mi WNW 13.8 mph 20.7 mph N/A   Scattered Clouds
2:14 PM 44.2 °F 37.6 °F 27.9 °F 53% 30.12 in 10.0 mi WNW 13.8 mph 21.9 mph N/A   Scattered Clouds
2:35 PM 45.0 °F 37.9 °F 27.9 °F 51% 30.12 in 10.0 mi West 16.1 mph 21.9 mph N/A   Mostly Cloudy
2:55 PM 43.5 °F 36.1 °F 25.2 °F 48% 30.12 in 10.0 mi West 16.1 mph 24.2 mph N/A   Mostly Cloudy
3:14 PM 43.5 °F 36.1 °F 25.7 °F 50% 30.12 in 10.0 mi West 16.1 mph 21.9 mph N/A   Scattered Clouds
3:35 PM 43.7 °F 36.0 °F 27.9 °F 54% 30.12 in 10.0 mi WNW 17.3 mph 24.2 mph N/A   Mostly Cloudy
3:55 PM 42.8 °F 34.8 °F 28.6 °F 57% 30.12 in 10.0 mi WNW 17.3 mph 23.0 mph N/A   Overcast
4:15 PM 42.1 °F 34.2 °F 29.8 °F 62% 30.13 in 10.0 mi West 16.1 mph 23.0 mph N/A   Overcast
4:35 PM 41.5 °F 34.6 °F 30.2 °F 64% 30.12 in 10.0 mi West 12.7 mph - N/A   Overcast
4:54 PM 41.2 °F 34.1 °F 30.0 °F 65% 30.12 in 10.0 mi WNW 12.7 mph 19.6 mph N/A   Overcast
5:15 PM 40.8 °F 35.6 °F 29.8 °F 65% 30.12 in 10.0 mi West 8.1 mph - N/A   Overcast
5:35 PM 40.1 °F 33.6 °F 30.4 °F 68% 30.12 in 10.0 mi West 10.4 mph - N/A   Overcast
5:54 PM 40.1 °F 34.1 °F 30.7 °F 69% 30.12 in 10.0 mi West 9.2 mph - N/A   Overcast
6:15 PM 40.1 °F 34.1 °F 31.5 °F 71% 30.13 in 10.0 mi West 9.2 mph - N/A   Light Drizzle
6:35 PM 39.0 °F 31.4 °F 32.9 °F 79% 30.13 in 10.0 mi WSW 12.7 mph - N/A Rain Light Rain
6:54 PM 37.6 °F 30.0 °F 34.2 °F 87% 30.14 in 7.0 mi WSW 11.5 mph 17.3 mph N/A Rain Rain
7:15 PM 37.2 °F 31.2 °F 34.3 °F 89% 30.13 in 10.0 mi WSW 8.1 mph - N/A Rain Light Rain
7:35 PM 37.0 °F 32.4 °F 34.3 °F 90% 30.13 in 10.0 mi WSW 5.8 mph - N/A   Overcast
7:54 PM 36.9 °F 30.1 °F 34.2 °F 90% 30.13 in 10.0 mi WSW 9.2 mph - N/A   Overcast
8:15 PM 37.2 °F 30.6 °F 34.7 °F 91% 30.13 in 10.0 mi West 9.2 mph - N/A   Overcast
8:35 PM 37.4 °F 30.8 °F 34.9 °F 91% 30.13 in 7.0 mi West 9.2 mph - N/A Rain Light Rain
8:54 PM 35.8 °F 30.9 °F 33.8 °F 92% 30.13 in 7.0 mi West 5.8 mph - N/A   Mostly Cloudy
9:15 PM 34.3 °F 29.2 °F 33.1 °F 95% 30.13 in 7.0 mi West 5.8 mph - N/A   Scattered Clouds
9:35 PM 36.0 °F 31.1 °F 34.7 °F 95% 30.14 in 7.0 mi West 5.8 mph - N/A   Overcast
9:54 PM 36.5 °F 31.8 °F 34.3 °F 92% 30.13 in 10.0 mi West 5.8 mph - N/A   Overcast
10:15 PM 35.6 °F 29.9 °F 34.0 °F 94% 30.14 in 7.0 mi WSW 6.9 mph - N/A   Mostly Cloudy
10:35 PM 36.5 °F 27.8 °F 33.6 °F 89% 30.14 in 10.0 mi West 13.8 mph 20.7 mph N/A   Overcast
10:54 PM 36.3 °F 26.1 °F 32.7 °F 87% 30.14 in 10.0 mi West 18.4 mph 25.3 mph N/A   Overcast
11:15 PM 35.4 °F 26.0 °F 32.9 °F 91% 30.15 in 7.0 mi WNW 15.0 mph 20.7 mph N/A Snow Light Snow
11:34 PM 34.7 °F 26.4 °F 32.9 °F 93% 30.15 in 3.0 mi WNW 11.5 mph 20.7 mph N/A Snow Light Snow
11:55 PM 33.8 °F 25.8 °F 32.9 °F 96% 30.15 in 5.0 mi NW 10.4 mph - N/A Snow Light Snow